This is the latest recevied weather packets stored in our database for station/object W0RMT-13. If no packets are shown the sender has not sent any weather packets the latest 10 day(s).
| Time | Temp. | Humidity | Pressure | Rain* | Wind** | Luminosity | Snow |
|---|---|---|---|---|---|---|---|
| 1778094123 | 1.67° C | 93% | 1020.2 hPa | 0 mm | - | 193 W/m² | - |
| 1778093475 | 1.67° C | 93% | 1019.8 hPa | 0 mm | - | 226 W/m² | - |
| 1778092790 | 1.11° C | 93% | 1020.2 hPa | 0 mm | - | 196 W/m² | - |
| 1778092177 | 0.56° C | 97% | 1020.2 hPa | 0 mm | - | 198 W/m² | - |
| 1778091513 | 0.56° C | 98% | 1020.2 hPa | 0 mm | - | 129 W/m² | - |
| 1778090853 | 0.56° C | 99% | 1020.5 hPa | 0 mm | - | 136 W/m² | - |
| 1778090235 | 0.56° C | 99% | 1020.2 hPa | 0 mm | - | 84 W/m² | - |
| 1778089618 | 0.56° C | 99% | 1020.2 hPa | 0 mm | - | 72 W/m² | - |
| 1778088937 | 0° C | 99% | 1020.2 hPa | 0 mm | - | 62 W/m² | - |
| 1778088305 | 0° C | 99% | 1020.2 hPa | 0 mm | - | 56 W/m² | - |
| 1778087644 | 0° C | 99% | 1020.2 hPa | 0 mm | - | 39 W/m² | - |
| 1778086979 | 0° C | 99% | 1019.8 hPa | 0 mm | - | 39 W/m² | - |
| 1778086293 | 0° C | 99% | 1019.8 hPa | 0 mm | - | 24 W/m² | - |
| 1778085658 | 0° C | 99% | 1019.8 hPa | 0 mm | - | 28 W/m² | - |
| 1778084958 | 0° C | 99% | 1019.4 hPa | 0 mm | - | 30 W/m² | - |
| 1778084349 | -0.56° C | 99% | 1019.4 hPa | 0 mm | - | 35 W/m² | - |
| 1778083664 | -0.56° C | 99% | 1019.4 hPa | 0 mm | - | 42 W/m² | - |
| 1778083010 | -0.56° C | 99% | 1019 hPa | 0 mm | - | 26 W/m² | - |
| 1778082350 | -0.56° C | 99% | 1019 hPa | 0 mm | - | 24 W/m² | - |
| 1778081677 | -0.56° C | 99% | 1019 hPa | 0 mm | - | 22 W/m² | - |
| 1778080974 | -0.56° C | 99% | 1018.7 hPa | 0 mm | - | 24 W/m² | - |
| 1778080370 | -0.56° C | 99% | 1018.7 hPa | 0 mm | - | 21 W/m² | - |
| 1778079768 | -0.56° C | 99% | 1018.7 hPa | 0 mm | - | 20 W/m² | - |
| 1778079138 | -0.56° C | 99% | 1018.7 hPa | 0 mm | - | 16 W/m² | - |
| 1778078505 | -0.56° C | 99% | 1018.7 hPa | 0 mm | - | 19 W/m² | - |
* Rain latest hour (hover to see other rain measurements)
** Current wind speed in m/s (hover to see current wind gust speed)